This is the latest recevied weather packets stored in our database for station/object N2ZVN. If no packets are shown the sender has not sent any weather packets the latest 10 day(s).
| Time | Temp. | Humidity | Pressure | Rain* | Wind** | Luminosity | Snow |
|---|---|---|---|---|---|---|---|
| 1788575291 | 17.78° C | 95% | 1014.7 hPa | 0 mm | - | 0 W/m² | - |
| 1788574986 | 17.78° C | 95% | 1014.9 hPa | 0 mm | - | 0 W/m² | - |
| 1788574681 | 18.33° C | 95% | 1014.7 hPa | 0 mm | - | 0 W/m² | - |
| 1788574376 | 18.33° C | 95% | 1014.8 hPa | 0 mm | - | 0 W/m² | - |
| 1788574076 | 18.33° C | 95% | 1014.9 hPa | 0 mm | - | 0 W/m² | - |
| 1788573771 | 18.33° C | 95% | 1014.7 hPa | 0 mm | - | 0 W/m² | - |
| 1788573470 | 18.33° C | 95% | 1014.8 hPa | 0 mm | - | 0 W/m² | - |
| 1788573164 | 18.89° C | 94% | 1015.1 hPa | 0 mm | - | 0 W/m² | - |
| 1788572863 | 18.89° C | 94% | 1015 hPa | 0 mm | - | 0 W/m² | - |
| 1788572559 | 18.89° C | 94% | 1015 hPa | 0 mm | - | 0 W/m² | - |
| 1788572254 | 18.89° C | 94% | 1014.8 hPa | 0 mm | - | 0 W/m² | - |
| 1788571950 | 18.89° C | 94% | 1014.9 hPa | 0 mm | - | 0 W/m² | - |
| 1788571646 | 19.44° C | 93% | 1015 hPa | 0 mm | - | 0 W/m² | - |
| 1788571341 | 19.44° C | 91% | 1014.8 hPa | 0 mm | - | 0 W/m² | - |
| 1788571038 | 19.44° C | 91% | 1015 hPa | 0 mm | - | 0 W/m² | - |
| 1788570734 | 19.44° C | 89% | 1014.6 hPa | 0 mm | - | 0 W/m² | - |
| 1788570433 | 19.44° C | 90% | 1014.9 hPa | 0 mm | - | 0 W/m² | - |
| 1788570129 | 19.44° C | 91% | 1014.7 hPa | 0 mm | - | 0 W/m² | - |
| 1788569825 | 19.44° C | 90% | 1015 hPa | 0 mm | - | 0 W/m² | - |
| 1788569521 | 20° C | 90% | 1014.9 hPa | 0 mm | - | 0 W/m² | - |
| 1788569215 | 20° C | 89% | 1014.9 hPa | 0 mm | - | 0 W/m² | - |
| 1788568910 | 20° C | 89% | 1014.7 hPa | 0 mm | - | 0 W/m² | - |
| 1788568606 | 20° C | 86% | 1014.6 hPa | 0 mm | - | 0 W/m² | - |
| 1788568301 | 20° C | 84% | 1014.7 hPa | 0 mm | - | 0 W/m² | - |
| 1788567996 | 20° C | 89% | 1014.6 hPa | 0 mm | - | 0 W/m² | - |
* Rain latest hour (hover to see other rain measurements)
** Current wind speed in m/s (hover to see current wind gust speed)